TRA189 EHEH-LDZA

Flight info

Callsign TRA189
Flight time 1h 28m
Altitude 35000
Route VELNI DCT ONUNE DCT GMH DCT NEGIX DCT DINKU DCT BESNI DCT GOMIG DCT GOLVA DCT MIRSO DCT PETOV
Aircraft B738/M-SDE2E3FGHIRWXY/LB1

Departure

Time 2026-05-04 16:30
Airport Eindhoven Airport (EHEH)

Arrival

Time 2026-05-04 17:59
Airport Zagreb Franjo Tuđman International Airport (LDZA)
Time Latitude Longitude Altitude Speed Heading
2026-05-04 16:13 51.45786 5.38978 74 ft 0 kts 125°
2026-05-04 16:23 51.45813 5.38919 68 ft 2 kts 123°
2026-05-04 16:24 51.45800 5.38842 63 ft 0 kts 35°
2026-05-04 16:27 51.45837 5.38885 70 ft 9 kts 35°
2026-05-04 16:28 51.46010 5.38896 74 ft 10 kts 306°
2026-05-04 16:28 51.46064 5.38632 71 ft 4 kts 216°
2026-05-04 16:29 51.44988 5.37426 66 ft 154 kts 214°
2026-05-04 16:30 51.41868 5.34095 2228 ft 180 kts 216°
2026-05-04 16:31 51.39398 5.31915 2887 ft 224 kts 182°
2026-05-04 16:31 51.36832 5.37233 4735 ft 238 kts 90°
2026-05-04 16:32 51.36891 5.45223 6990 ft 242 kts 90°
2026-05-04 16:33 51.36864 5.50677 8402 ft 248 kts 91°
2026-05-04 16:33 51.36826 5.56283 9691 ft 261 kts 90°
2026-05-04 16:34 51.36812 5.62560 10210 ft 302 kts 90°
2026-05-04 16:34 51.36909 5.66041 10366 ft 325 kts 78°
2026-05-04 16:35 51.39936 5.76696 11405 ft 367 kts 64°
2026-05-04 16:35 51.43288 5.87862 13512 ft 376 kts 64°
2026-05-04 16:36 51.44414 5.91683 14100 ft 382 kts 64°
2026-05-04 16:36 51.46325 5.98202 15178 ft 388 kts 65°
2026-05-04 16:37 51.48634 6.06112 16469 ft 396 kts 66°
2026-05-04 16:37 51.49807 6.10136 17088 ft 400 kts 66°
2026-05-04 16:37 51.52085 6.18367 18271 ft 407 kts 76°
2026-05-04 16:38 51.51922 6.27342 19325 ft 407 kts 103°
2026-05-04 16:39 51.50120 6.40944 20742 ft 422 kts 104°
2026-05-04 16:39 51.48907 6.50242 21717 ft 429 kts 104°
2026-05-04 16:40 51.47691 6.59709 22644 ft 437 kts 105°
2026-05-04 16:40 51.46455 6.69349 23534 ft 445 kts 105°
2026-05-04 16:41 51.45191 6.79132 24284 ft 451 kts 105°
2026-05-04 16:41 51.43254 6.94003 25451 ft 458 kts 105°
2026-05-04 16:42 51.41263 7.09116 26517 ft 465 kts 105°
2026-05-04 16:43 51.39909 7.19300 27200 ft 470 kts 106°
2026-05-04 16:43 51.38534 7.29590 27828 ft 475 kts 106°
2026-05-04 16:43 51.37837 7.34766 28165 ft 477 kts 106°
2026-05-04 16:44 51.32169 7.53340 29698 ft 463 kts 129°
2026-05-04 16:45 51.28534 7.61880 30543 ft 461 kts 128°
2026-05-04 16:46 51.23171 7.74711 31368 ft 465 kts 128°
2026-05-04 16:46 51.19597 7.83244 32156 ft 461 kts 130°
2026-05-04 16:47 51.14982 7.90706 32857 ft 447 kts 149°
2026-05-04 16:47 51.09886 7.95285 33660 ft 438 kts 158°
2026-05-04 16:48 51.01722 8.01813 34547 ft 439 kts 158°
2026-05-04 16:48 50.98997 8.04014 34786 ft 440 kts 158°
2026-05-04 16:49 50.93534 8.08448 34984 ft 445 kts 158°
2026-05-04 16:49 50.88018 8.12931 34985 ft 445 kts 158°
2026-05-04 16:50 50.77113 8.21766 34994 ft 438 kts 158°
2026-05-04 16:51 50.68975 8.28319 34994 ft 437 kts 158°
2026-05-04 16:52 50.57956 8.37153 34994 ft 438 kts 158°
2026-05-04 16:53 50.49979 8.43522 34995 ft 438 kts 158°
2026-05-04 16:54 50.39113 8.52297 34987 ft 443 kts 152°
2026-05-04 16:55 50.30109 8.65914 34987 ft 454 kts 137°
2026-05-04 16:55 50.25828 8.73187 34978 ft 454 kts 137°
2026-05-04 16:56 50.15043 8.91166 34978 ft 453 kts 138°
2026-05-04 16:57 50.08592 9.01826 34982 ft 453 kts 138°
2026-05-04 16:58 49.99903 9.16116 34967 ft 454 kts 138°
2026-05-04 17:00 49.86899 9.37358 34988 ft 453 kts 138°
2026-05-04 17:01 49.75861 9.55248 34969 ft 454 kts 138°
2026-05-04 17:02 49.67254 9.69113 34988 ft 455 kts 138°
2026-05-04 17:03 49.60629 9.79733 34986 ft 456 kts 138°
2026-05-04 17:03 49.54001 9.90314 34931 ft 458 kts 138°
2026-05-04 17:04 49.45158 10.04363 34964 ft 457 kts 138°
2026-05-04 17:05 49.36309 10.18345 34971 ft 456 kts 138°
2026-05-04 17:06 49.29668 10.28790 34969 ft 455 kts 138°
2026-05-04 17:07 49.23785 10.38009 34975 ft 454 kts 137°
2026-05-04 17:07 49.18539 10.45928 34991 ft 453 kts 139°
2026-05-04 17:08 49.11777 10.55900 34986 ft 452 kts 139°
2026-05-04 17:09 49.07259 10.62575 34988 ft 452 kts 139°
2026-05-04 17:09 49.02750 10.69236 34972 ft 451 kts 139°
2026-05-04 17:10 48.91489 10.85799 34969 ft 450 kts 139°
2026-05-04 17:11 48.86985 10.92392 34949 ft 450 kts 139°
2026-05-04 17:12 48.80229 11.02249 34935 ft 449 kts 139°
2026-05-04 17:13 48.68951 11.18623 34937 ft 450 kts 139°
2026-05-04 17:14 48.62827 11.29392 34920 ft 457 kts 121°
2026-05-04 17:14 48.61364 11.33658 34927 ft 458 kts 120°
2026-05-04 17:15 48.57058 11.46566 34919 ft 460 kts 120°
2026-05-04 17:16 48.51186 11.63727 34940 ft 461 kts 120°
2026-05-04 17:17 48.45731 11.79461 34931 ft 461 kts 120°
2026-05-04 17:18 48.39777 11.96539 34940 ft 460 kts 121°
2026-05-04 17:19 48.33803 12.13561 34916 ft 460 kts 121°
2026-05-04 17:20 48.27810 12.30527 34916 ft 460 kts 121°
2026-05-04 17:20 48.23297 12.43231 34909 ft 460 kts 121°
2026-05-04 17:21 48.16714 12.59599 34909 ft 457 kts 130°
2026-05-04 17:22 48.12876 12.67183 34902 ft 457 kts 130°
2026-05-04 17:23 48.05243 12.82422 34899 ft 458 kts 129°
2026-05-04 17:24 47.99556 12.93904 34893 ft 458 kts 129°
2026-05-04 17:25 47.91980 13.09137 34897 ft 459 kts 129°
2026-05-04 17:26 47.84328 13.24428 34898 ft 459 kts 129°
2026-05-04 17:27 47.74764 13.43420 34917 ft 459 kts 129°
2026-05-04 17:28 47.67079 13.58585 34919 ft 459 kts 129°
2026-05-04 17:29 47.55556 13.81169 34948 ft 457 kts 129°
2026-05-04 17:31 47.45935 13.99882 34960 ft 457 kts 129°
2026-05-04 17:32 47.36240 14.18608 34623 ft 463 kts 129°
2026-05-04 17:33 47.30416 14.29801 33883 ft 458 kts 129°
2026-05-04 17:33 47.28474 14.33522 33629 ft 459 kts 129°
2026-05-04 17:34 47.22645 14.44659 32833 ft 461 kts 129°
2026-05-04 17:34 47.20682 14.48400 32578 ft 462 kts 129°
2026-05-04 17:35 47.14762 14.59650 31800 ft 465 kts 129°
2026-05-04 17:35 47.10779 14.67194 31302 ft 470 kts 129°
2026-05-04 17:35 47.08770 14.70991 31052 ft 472 kts 130°
2026-05-04 17:36 47.06753 14.74799 30553 ft 473 kts 129°
2026-05-04 17:36 47.04744 14.78588 30023 ft 469 kts 129°
2026-05-04 17:36 47.02746 14.82351 29398 ft 465 kts 129°
2026-05-04 17:36 47.00771 14.86065 28849 ft 459 kts 129°
2026-05-04 17:37 46.98817 14.89734 28296 ft 454 kts 130°
2026-05-04 17:37 46.96885 14.93358 27741 ft 450 kts 129°
2026-05-04 17:37 46.94959 14.96963 27206 ft 447 kts 129°
2026-05-04 17:37 46.93054 15.00526 26667 ft 443 kts 129°
2026-05-04 17:38 46.91168 15.04047 26144 ft 439 kts 129°
2026-05-04 17:38 46.89293 15.07545 25622 ft 436 kts 129°
2026-05-04 17:38 46.87428 15.11019 25110 ft 433 kts 130°
2026-05-04 17:38 46.85575 15.14467 24571 ft 431 kts 129°
2026-05-04 17:39 46.81891 15.21306 23523 ft 426 kts 129°
2026-05-04 17:39 46.80063 15.24695 22938 ft 423 kts 129°
2026-05-04 17:39 46.78245 15.28062 22384 ft 420 kts 129°
2026-05-04 17:40 46.76451 15.31380 21873 ft 415 kts 130°
2026-05-04 17:40 46.74671 15.34670 21348 ft 412 kts 130°
2026-05-04 17:40 46.72901 15.37934 20860 ft 407 kts 130°
2026-05-04 17:40 46.71150 15.41161 20365 ft 404 kts 130°
2026-05-04 17:41 46.69417 15.44351 19877 ft 400 kts 130°
2026-05-04 17:41 46.67696 15.47514 19397 ft 397 kts 130°
2026-05-04 17:41 46.65987 15.50652 18912 ft 394 kts 131°
2026-05-04 17:41 46.64287 15.53771 18433 ft 391 kts 131°
2026-05-04 17:42 46.62601 15.56859 17900 ft 388 kts 130°
2026-05-04 17:42 46.60928 15.59922 17377 ft 385 kts 130°
2026-05-04 17:42 46.59269 15.62956 16885 ft 381 kts 130°
2026-05-04 17:42 46.57629 15.65951 16407 ft 377 kts 131°
2026-05-04 17:43 46.56004 15.68914 15936 ft 374 kts 131°
2026-05-04 17:43 46.54388 15.71860 15476 ft 370 kts 131°
2026-05-04 17:43 46.52789 15.74774 15012 ft 367 kts 131°
2026-05-04 17:43 46.51068 15.77904 14526 ft 364 kts 131°
2026-05-04 17:44 46.49627 15.80521 14110 ft 362 kts 131°
2026-05-04 17:44 46.47979 15.83258 13630 ft 358 kts 139°
2026-05-04 17:44 46.46063 15.85492 13238 ft 350 kts 149°
2026-05-04 17:44 46.43978 15.87240 12815 ft 344 kts 153°
2026-05-04 17:45 46.41878 15.88898 12363 ft 342 kts 154°
2026-05-04 17:45 46.39796 15.90540 11913 ft 340 kts 154°
2026-05-04 17:45 46.38425 15.91629 11621 ft 338 kts 153°
2026-05-04 17:45 46.35682 15.93828 11034 ft 336 kts 154°
2026-05-04 17:46 46.33658 15.95458 10828 ft 327 kts 154°
2026-05-04 17:46 46.31699 15.97038 10673 ft 318 kts 154°
2026-05-04 17:46 46.29855 15.98726 10523 ft 311 kts 146°
2026-05-04 17:46 46.28191 16.00664 10388 ft 303 kts 142°
2026-05-04 17:47 46.26611 16.02615 10255 ft 295 kts 142°
2026-05-04 17:47 46.25075 16.04516 10134 ft 287 kts 143°
2026-05-04 17:47 46.23571 16.06359 10024 ft 279 kts 143°
2026-05-04 17:47 46.22093 16.08151 9759 ft 277 kts 143°
2026-05-04 17:48 46.20618 16.09924 9482 ft 275 kts 144°
2026-05-04 17:48 46.19155 16.11674 9206 ft 271 kts 144°
2026-05-04 17:48 46.17711 16.13396 8936 ft 267 kts 143°
2026-05-04 17:48 46.16283 16.15093 8688 ft 265 kts 144°
2026-05-04 17:49 46.14865 16.16775 8414 ft 264 kts 144°
2026-05-04 17:49 46.13448 16.18453 8152 ft 263 kts 144°
2026-05-04 17:49 46.12039 16.20121 7883 ft 262 kts 144°
2026-05-04 17:49 46.10636 16.21780 7625 ft 261 kts 144°
2026-05-04 17:50 46.09250 16.23417 7366 ft 260 kts 144°
2026-05-04 17:50 46.07839 16.25085 7108 ft 260 kts 144°
2026-05-04 17:50 46.06444 16.26732 6852 ft 260 kts 144°
2026-05-04 17:50 46.05047 16.28379 6620 ft 259 kts 144°
2026-05-04 17:51 46.03673 16.29998 6514 ft 251 kts 144°
2026-05-04 17:51 46.02341 16.31572 6284 ft 245 kts 143°
2026-05-04 17:51 46.01084 16.33206 5937 ft 242 kts 140°
2026-05-04 17:51 45.99860 16.34859 5578 ft 241 kts 140°
2026-05-04 17:52 45.98660 16.36477 5239 ft 238 kts 140°
2026-05-04 17:52 45.97388 16.37965 4875 ft 234 kts 158°
2026-05-04 17:52 45.95820 16.38291 4521 ft 224 kts 192°
2026-05-04 17:52 45.94420 16.37487 4192 ft 219 kts 216°
2026-05-04 17:53 45.93302 16.36042 3871 ft 214 kts 227°
2026-05-04 17:53 45.92281 16.34462 3555 ft 210 kts 228°
2026-05-04 17:53 45.91328 16.32977 3499 ft 194 kts 228°
2026-05-04 17:53 45.90458 16.31625 3490 ft 176 kts 229°
2026-05-04 17:54 45.89657 16.30377 3483 ft 170 kts 228°
2026-05-04 17:54 45.88860 16.29146 3492 ft 171 kts 228°
2026-05-04 17:54 45.88051 16.27901 3490 ft 166 kts 228°
2026-05-04 17:54 45.87269 16.26702 3492 ft 162 kts 229°
2026-05-04 17:55 45.86516 16.25547 3506 ft 156 kts 229°
2026-05-04 17:55 45.85759 16.24385 3522 ft 163 kts 229°
2026-05-04 17:55 45.84976 16.23185 3505 ft 165 kts 229°
2026-05-04 17:55 45.84203 16.22000 3504 ft 159 kts 228°
2026-05-04 17:56 45.83446 16.20845 3437 ft 166 kts 228°
2026-05-04 17:56 45.82620 16.19599 3243 ft 178 kts 227°
2026-05-04 17:56 45.81748 16.18270 3048 ft 188 kts 228°
2026-05-04 17:56 45.80836 16.16880 2858 ft 193 kts 228°
2026-05-04 17:57 45.79914 16.15474 2657 ft 196 kts 229°
2026-05-04 17:57 45.78993 16.14083 2341 ft 185 kts 229°
2026-05-04 17:57 45.78134 16.12780 1904 ft 175 kts 229°
2026-05-04 17:57 45.77313 16.11528 1420 ft 170 kts 230°
2026-05-04 17:58 45.76538 16.10273 993 ft 166 kts 229°
2026-05-04 17:58 45.75772 16.09117 717 ft 152 kts 225°
2026-05-04 17:58 45.75304 16.08396 491 ft 142 kts 226°
2026-05-04 17:58 45.74628 16.07398 360 ft 133 kts 226°
2026-05-04 17:59 45.74087 16.06566 366 ft 76 kts 227°
2026-05-04 17:59 45.73918 16.06307 363 ft 18 kts 227°
2026-05-04 17:59 45.73759 16.06375 358 ft 10 kts 136°
2026-05-04 18:00 45.73770 16.06475 358 ft 13 kts 47°
2026-05-04 18:00 45.73841 16.06587 363 ft 17 kts 47°
2026-05-04 18:00 45.73932 16.06728 358 ft 21 kts 47°
2026-05-04 18:00 45.74041 16.06894 360 ft 25 kts 45°
2026-05-04 18:01 45.74159 16.07068 365 ft 20 kts 46°
2026-05-04 18:01 45.74211 16.07176 360 ft 13 kts 85°
2026-05-04 18:01 45.74154 16.07289 362 ft 16 kts 135°
2026-05-04 18:02 45.74109 16.07542 361 ft 18 kts 48°
2026-05-04 18:02 45.74196 16.07682 358 ft 11 kts 47°
2026-05-04 18:02 45.74187 16.07750 357 ft 10 kts 134°
2026-05-04 18:02 45.74159 16.07787 358 ft 3 kts 137°
2026-05-04 18:03 45.74154 16.07794 358 ft 0 kts 136°